Total_Precipitation_Accumulation
2.16 2.17 2.18 2.09 2.10 2.12 2.30 2.46 2.45 2.19 1.95 1.72 1.56 1.39 1.45 1.53 1.80 1.68 1.40 1.41 1.32 1.23 1.20 1.19 1.33 1.57 1.78 1.92 2.13 2.29 2.47 2.62 2.73 2.75 2.62 2.48 2.54 2.70
1.90 1.95 1.98 1.95 2.06 2.08 2.18 2.35 2.36 2.27 2.09 1.81 1.61 1.54 1.61 1.54 1.69 1.54 1.50 1.65 1.45 1.28 1.20 1.17 1.20 1.31 1.39 1.47 1.56 1.61 1.65 1.73 1.90 2.21 2.25 2.12 2.09 2.21
1.57 1.61 1.67 1.66 1.83 1.89 2.00 2.14 2.23 2.21 1.98 1.74 1.61 1.63 1.69 1.71 1.66 1.53 1.49 1.50 1.44 1.34 1.19 1.12 1.15 1.20 1.25 1.36 1.43 1.43 1.44 1.46 1.61 1.90 2.02 1.88 1.81 1.81
1.44 1.46 1.43 1.44 1.57 1.66 1.76 1.86 2.03 2.11 2.02 1.85 1.71 1.60 1.51 1.58 1.72 1.73 1.69 1.58 1.57 1.62 1.49 1.35 1.30 1.23 1.19 1.31 1.42 1.40 1.38 1.44 1.45 1.60 1.70 1.66 1.71 1.77
1.12 1.14 1.16 1.27 1.43 1.48 1.52 1.65 1.83 1.92 2.03 1.93 1.82 1.71 1.54 1.50 1.69 1.65 1.69 1.88 1.76 1.82 1.93 1.76 1.54 1.36 1.23 1.28 1.41 1.40 1.36 1.44 1.36 1.37 1.55 1.57 1.58 1.64
0.99 0.98 0.94 1.00 1.14 1.29 1.38 1.57 1.77 1.96 2.07 2.03 1.98 1.88 1.76 1.63 1.69 1.82 1.86 1.93 1.92 1.74 1.78 1.80 1.79 1.65 1.44 1.32 1.39 1.46 1.51 1.53 1.51 1.49 1.53 1.49 1.49 1.50
0.90 0.95 0.93 0.94 0.97 1.05 1.06 1.26 1.49 1.77 1.94 2.04 2.03 2.01 1.92 1.82 1.70 1.86 1.92 2.03 2.12 2.08 1.98 1.80 1.79 1.64 1.51 1.44 1.42 1.48 1.60 1.64 1.67 1.66 1.55 1.47 1.42 1.44
0.97 0.95 0.92 0.89 0.99 0.99 0.97 1.02 1.20 1.41 1.60 1.72 1.78 1.81 1.85 1.92 2.01 2.01 1.96 2.00 2.07 2.07 1.95 1.99 1.97 1.88 1.64 1.44 1.48 1.54 1.62 1.67 1.69 1.62 1.48 1.38 1.35 1.40
0.96 1.03 1.05 0.95 0.99 1.02 1.08 1.03 0.99 1.06 1.26 1.47 1.55 1.58 1.67 1.74 1.98 2.01 2.00 2.01 1.89 1.92 1.81 1.89 1.85 1.78 1.68 1.63 1.66 1.57 1.62 1.62 1.66 1.60 1.53 1.48 1.42 1.45
0.89 0.96 1.18 1.20 1.10 1.11 1.18 1.23 1.10 0.96 1.00 1.09 1.27 1.43 1.51 1.69 2.00 2.21 2.17 1.94 1.83 1.84 1.75 1.79 1.73 1.65 1.60 1.56 1.65 1.59 1.58 1.55 1.55 1.57 1.51 1.50 1.49 1.47
0.80 0.93 1.06 1.16 1.14 1.16 1.11 1.17 1.19 1.07 1.04 1.11 1.11 1.22 1.40 1.59 1.87 2.13 2.22 2.14 1.94 1.84 1.69 1.63 1.65 1.67 1.70 1.62 1.58 1.65 1.63 1.63 1.59 1.60 1.60 1.58 1.56 1.63
0.69 0.87 1.09 1.05 1.06 1.12 1.11 1.19 1.29 1.13 1.05 1.16 1.13 1.16 1.21 1.46 1.86 2.04 2.16 2.17 2.03 1.97 1.78 1.69 1.67 1.73 1.97 1.89 1.67 1.60 1.60 1.73 1.76 1.68 1.63 1.66 1.72 1.69
0.68 0.79 0.85 0.88 0.91 1.03 1.09 1.11 1.28 1.22 1.21 1.34 1.36 1.30 1.35 1.40 1.56 1.74 1.97 2.12 2.06 1.90 1.77 1.87 1.94 1.84 1.82 1.82 1.77 1.65 1.60 1.56 1.65 1.74 1.73 1.71 1.70 1.65
0.72 0.76 0.74 0.77 0.81 0.87 0.89 0.96 1.17 1.29 1.34 1.47 1.49 1.43 1.39 1.42 1.45 1.50 1.65 1.79 1.81 1.76 1.68 1.65 1.74 1.71 1.62 1.47 1.48 1.56 1.59 1.60 1.60 1.68 1.73 1.94 1.86 1.78
0.70 0.77 0.79 0.81 0.82 0.79 0.81 0.90 1.06 1.24 1.42 1.47 1.38 1.30 1.33 1.38 1.40 1.52 1.60 1.67 1.72 1.69 1.55 1.42 1.43 1.50 1.48 1.37 1.27 1.34 1.49 1.55 1.48 1.52 1.60 1.65 1.70 1.72
0.74 0.79 0.83 0.83 0.79 0.75 0.83 0.93 1.07 1.28 1.39 1.34 1.31 1.21 1.24 1.37 1.44 1.45 1.48 1.49 1.56 1.62 1.47 1.39 1.37 1.41 1.44 1.35 1.30 1.26 1.29 1.39 1.42 1.45 1.54 1.58 1.55 1.53
0.74 0.80 0.84 0.91 0.91 0.95 1.03 1.10 1.09 1.13 1.21 1.14 1.21 1.18 1.18 1.29 1.35 1.32 1.36 1.31 1.27 1.27 1.30 1.26 1.26 1.32 1.34 1.36 1.39 1.31 1.29 1.31 1.29 1.40 1.52 1.58 1.56 1.46
0.80 0.83 0.91 1.00 1.06 1.13 1.18 1.15 1.11 1.10 1.13 1.14 1.18 1.19 1.15 1.19 1.22 1.25 1.32 1.35 1.35 1.27 1.19 1.16 1.13 1.23 1.32 1.40 1.41 1.30 1.32 1.37 1.43 1.45 1.43 1.45 1.45 1.41
0.78 0.86 1.06 1.09 1.06 1.09 1.16 1.16 1.06 0.98 0.99 1.01 1.03 1.05 1.06 1.08 1.14 1.19 1.24 1.29 1.32 1.26 1.21 1.21 1.22 1.28 1.32 1.24 1.17 1.12 1.25 1.34 1.43 1.48 1.42 1.35 1.31 1.30
0.64 0.75 0.92 0.97 1.00 1.04 1.03 1.00 0.95 0.91 0.93 0.93 0.91 0.90 0.94 1.00 1.04 1.09 1.12 1.13 1.18 1.18 1.18 1.20 1.22 1.25 1.31 1.29 1.21 1.05 1.05 1.22 1.34 1.41 1.37 1.33 1.31 1.48
0.64 0.72 0.80 0.88 0.91 0.93 0.92 0.91 0.90 0.90 0.89 0.90 0.90 0.91 0.92 0.95 0.97 0.96 1.01 1.10 1.10 1.06 1.10 1.11 1.14 1.29 1.30 1.35 1.32 1.10 0.98 1.16 1.32 1.32 1.36 1.49 1.47 1.37
0.65 0.67 0.73 0.78 0.83 0.86 0.87 0.87 0.88 0.90 0.89 0.87 0.86 0.88 0.92 0.95 0.95 0.95 0.98 1.02 1.00 1.00 1.00 1.02 1.08 1.23 1.32 1.38 1.29 1.12 1.05 1.09 1.28 1.48 1.46 1.50 1.47 1.41
0.68 0.66 0.68 0.73 0.80 0.87 0.92 0.92 0.90 0.91 0.93 0.91 0.92 0.94 0.96 0.98 0.97 0.98 1.00 1.00 0.99 1.00 1.03 1.08 1.15 1.27 1.31 1.28 1.25 1.17 1.11 1.09 1.15 1.25 1.28 1.36 1.37 1.33